Time,TemperatureF,DewpointF,PressureIn,WindDirection,WindDirectionDegrees,WindSpeedMPH,WindSpeedGustMPH,Humidity,HourlyPrecipIn,Conditions,Clouds,dailyrainin,SoftwareType,DateUTC
2013-03-28 00:02:00,43.0,30.0,-100.00,WNW,300,16.0,20.0,61,-99.99,,,-99.99,,2013-03-28 04:02:00,
2013-03-28 00:12:00,42.0,30.0,-100.00,WNW,300,16.0,20.0,62,-99.99,,,-99.99,,2013-03-28 04:12:00,
2013-03-28 00:22:00,42.0,30.0,-100.00,WNW,300,16.0,20.0,62,-99.99,,,-99.99,,2013-03-28 04:22:00,
2013-03-28 00:32:00,42.0,30.0,-100.00,WNW,300,16.0,20.0,62,-99.99,,,-99.99,,2013-03-28 04:32:00,
2013-03-28 00:42:00,42.0,31.0,-100.00,WNW,290,16.0,20.0,64,-99.99,,,-99.99,,2013-03-28 04:42:00,
2013-03-28 00:52:00,42.0,31.0,-100.00,WNW,290,16.0,20.0,64,-99.99,,,-99.99,,2013-03-28 04:52:00,
2013-03-28 01:02:00,42.0,31.0,-100.00,WNW,290,16.0,20.0,64,-99.99,,,-99.99,,2013-03-28 05:02:00,
2013-03-28 01:11:00,41.0,31.0,-100.00,WNW,300,18.0,22.0,65,-99.99,,,-99.99,,2013-03-28 05:11:00,
2013-03-28 01:21:00,41.0,31.0,-100.00,WNW,300,18.0,22.0,65,-99.99,,,-99.99,,2013-03-28 05:21:00,
2013-03-28 01:31:00,41.0,31.0,-100.00,WNW,300,18.0,22.0,65,-99.99,,,-99.99,,2013-03-28 05:31:00,
2013-03-28 01:42:00,41.0,31.0,-100.00,WNW,300,18.0,22.0,65,-99.99,,,-99.99,,2013-03-28 05:42:00,
2013-03-28 01:51:00,41.0,31.0,-100.00,WNW,300,16.0,20.0,67,-99.99,,,-99.99,,2013-03-28 05:51:00,
2013-03-28 02:01:00,41.0,31.0,-100.00,WNW,300,16.0,20.0,67,-99.99,,,-99.99,,2013-03-28 06:01:00,
2013-03-28 02:11:00,41.0,31.0,-100.00,WNW,300,16.0,20.0,67,-99.99,,,-99.99,,2013-03-28 06:11:00,
2013-03-28 02:22:00,40.0,31.0,-100.00,WNW,300,16.0,20.0,68,-99.99,,,-99.99,,2013-03-28 06:22:00,
2013-03-28 02:31:00,40.0,31.0,-100.00,WNW,300,16.0,20.0,68,-99.99,,,-99.99,,2013-03-28 06:31:00,
2013-03-28 02:41:00,40.0,31.0,-100.00,WNW,300,16.0,20.0,68,-99.99,,,-99.99,,2013-03-28 06:41:00,
2013-03-28 02:51:00,40.0,31.0,-100.00,WNW,300,16.0,20.0,67,-99.99,,,-99.99,,2013-03-28 06:51:00,
2013-03-28 03:01:00,40.0,31.0,-100.00,WNW,300,16.0,20.0,67,-99.99,,,-99.99,,2013-03-28 07:01:00,
2013-03-28 03:11:00,40.0,30.0,-100.00,WNW,300,16.0,18.0,66,-99.99,,,-99.99,,2013-03-28 07:11:00,
2013-03-28 03:21:00,40.0,30.0,-100.00,WNW,300,16.0,18.0,66,-99.99,,,-99.99,,2013-03-28 07:21:00,
2013-03-28 03:31:00,40.0,30.0,-100.00,WNW,300,16.0,18.0,66,-99.99,,,-99.99,,2013-03-28 07:31:00,
2013-03-28 03:42:00,40.0,30.0,-100.00,WNW,300,16.0,18.0,66,-99.99,,,-99.99,,2013-03-28 07:42:00,
2013-03-28 03:51:00,40.0,30.0,-100.00,NW,310,13.0,18.0,67,-99.99,,,-99.99,,2013-03-28 07:51:00,
2013-03-28 04:02:00,40.0,30.0,-100.00,NW,310,13.0,18.0,67,-99.99,,,-99.99,,2013-03-28 08:02:00,
2013-03-28 04:11:00,40.0,31.0,-100.00,NW,310,11.0,13.0,69,-99.99,,,-99.99,,2013-03-28 08:11:00,
2013-03-28 04:21:00,40.0,31.0,-100.00,NW,310,11.0,13.0,69,-99.99,,,-99.99,,2013-03-28 08:21:00,
2013-03-28 04:31:00,40.0,31.0,-100.00,NW,310,11.0,13.0,69,-99.99,,,-99.99,,2013-03-28 08:31:00,
2013-03-28 04:41:00,40.0,31.0,-100.00,NW,310,11.0,13.0,69,-99.99,,,-99.99,,2013-03-28 08:41:00,
2013-03-28 04:52:00,40.0,31.0,-100.00,WNW,300,11.0,16.0,70,-99.99,,,-99.99,,2013-03-28 08:52:00,
2013-03-28 05:01:00,40.0,31.0,-100.00,WNW,300,11.0,16.0,70,-99.99,,,-99.99,,2013-03-28 09:01:00,
2013-03-28 05:11:00,40.0,31.0,-100.00,WNW,300,11.0,16.0,71,-99.99,,,-99.99,,2013-03-28 09:11:00,
2013-03-28 05:21:00,40.0,31.0,-100.00,WNW,300,11.0,16.0,71,-99.99,,,-99.99,,2013-03-28 09:21:00,
2013-03-28 05:32:00,40.0,31.0,-100.00,WNW,300,11.0,16.0,71,-99.99,,,-99.99,,2013-03-28 09:32:00,
2013-03-28 05:42:00,40.0,31.0,-100.00,WNW,300,11.0,16.0,71,-99.99,,,-99.99,,2013-03-28 09:42:00,
2013-03-28 05:52:00,40.0,31.0,-100.00,WNW,300,11.0,13.0,69,-99.99,,,-99.99,,2013-03-28 09:52:00,
2013-03-28 06:02:00,40.0,31.0,-100.00,WNW,300,11.0,13.0,69,-99.99,,,-99.99,,2013-03-28 10:02:00,
2013-03-28 06:12:00,40.0,31.0,-100.00,WNW,300,11.0,13.0,69,-99.99,,,-99.99,,2013-03-28 10:12:00,
2013-03-28 06:22:00,40.0,30.0,-100.00,WNW,300,11.0,13.0,69,-99.99,,,-99.99,,2013-03-28 10:22:00,
2013-03-28 06:32:00,40.0,30.0,-100.00,WNW,300,11.0,13.0,69,-99.99,,,-99.99,,2013-03-28 10:32:00,
2013-03-28 06:41:00,39.0,30.0,-100.00,NW,310,11.0,11.0,69,-99.99,,,-99.99,,2013-03-28 10:41:00,
2013-03-28 06:52:00,39.0,30.0,-100.00,NW,310,11.0,11.0,69,-99.99,,,-99.99,,2013-03-28 10:52:00,
2013-03-28 07:02:00,39.0,30.0,-100.00,NW,310,11.0,11.0,69,-99.99,,,-99.99,,2013-03-28 11:02:00,
2013-03-28 07:11:00,39.0,31.0,-100.00,NW,310,9.0,11.0,71,-99.99,,,-99.99,,2013-03-28 11:11:00,
2013-03-28 07:21:00,39.0,31.0,-100.00,NW,310,9.0,11.0,71,-99.99,,,-99.99,,2013-03-28 11:21:00,
2013-03-28 07:32:00,39.0,31.0,-100.00,NW,310,9.0,11.0,71,-99.99,,,-99.99,,2013-03-28 11:32:00,
2013-03-28 07:42:00,39.0,31.0,-100.00,NW,310,9.0,11.0,71,-99.99,,,-99.99,,2013-03-28 11:42:00,
2013-03-28 07:52:00,39.0,30.0,-100.00,WNW,300,9.0,9.0,70,-99.99,,,-99.99,,2013-03-28 11:52:00,
2013-03-28 08:01:00,39.0,30.0,-100.00,WNW,300,9.0,9.0,70,-99.99,,,-99.99,,2013-03-28 12:01:00,
2013-03-28 08:11:00,39.0,30.0,-100.00,NW,310,7.0,9.0,70,-99.99,,,-99.99,,2013-03-28 12:11:00,
2013-03-28 08:21:00,39.0,30.0,-100.00,NW,310,7.0,9.0,70,-99.99,,,-99.99,,2013-03-28 12:21:00,
2013-03-28 08:31:00,39.0,30.0,-100.00,NW,310,7.0,9.0,70,-99.99,,,-99.99,,2013-03-28 12:31:00,
2013-03-28 08:41:00,39.0,30.0,-100.00,NW,310,7.0,9.0,70,-99.99,,,-99.99,,2013-03-28 12:41:00,
2013-03-28 08:51:00,39.0,30.0,-100.00,NW,310,4.0,7.0,70,-99.99,,,-99.99,,2013-03-28 12:51:00,
2013-03-28 09:01:00,39.0,30.0,-100.00,NW,310,4.0,7.0,70,-99.99,,,-99.99,,2013-03-28 13:01:00,
2013-03-28 09:21:00,39.0,30.0,-100.00,WNW,300,4.0,7.0,69,-99.99,,,-99.99,,2013-03-28 13:21:00,
2013-03-28 09:31:00,39.0,30.0,-100.00,WNW,300,4.0,7.0,69,-99.99,,,-99.99,,2013-03-28 13:31:00,
2013-03-28 09:41:00,41.0,31.0,-100.00,NW,320,7.0,9.0,67,-99.99,,,-99.99,,2013-03-28 13:41:00,
2013-03-28 09:51:00,41.0,31.0,-100.00,NW,320,7.0,9.0,67,-99.99,,,-99.99,,2013-03-28 13:51:00,
2013-03-28 10:01:00,41.0,31.0,-100.00,NW,320,7.0,9.0,67,-99.99,,,-99.99,,2013-03-28 14:01:00,
2013-03-28 10:11:00,41.0,31.0,-100.00,NW,320,7.0,9.0,67,-99.99,,,-99.99,,2013-03-28 14:11:00,
2013-03-28 10:21:00,42.0,30.0,-100.00,NNW,330,9.0,13.0,61,-99.99,,,-99.99,,2013-03-28 14:21:00,
2013-03-28 10:51:00,42.0,30.0,-100.00,North,350,9.0,13.0,61,-99.99,,,-99.99,,2013-03-28 14:51:00,
2013-03-28 11:01:00,42.0,30.0,-100.00,North,350,9.0,13.0,61,-99.99,,,-99.99,,2013-03-28 15:01:00,
2013-03-28 11:21:00,43.0,29.0,-100.00,NNW,340,9.0,9.0,59,-99.99,,,-99.99,,2013-03-28 15:21:00,
2013-03-28 11:32:00,43.0,29.0,-100.00,NNW,340,9.0,9.0,59,-99.99,,,-99.99,,2013-03-28 15:32:00,
2013-03-28 11:42:00,43.0,29.0,-100.00,NNW,340,9.0,9.0,59,-99.99,,,-99.99,,2013-03-28 15:42:00,
2013-03-28 11:52:00,43.0,30.0,-100.00,NNW,340,11.0,13.0,60,-99.99,,,-99.99,,2013-03-28 15:52:00,
2013-03-28 12:02:00,43.0,30.0,-100.00,NNW,340,11.0,13.0,60,-99.99,,,-99.99,,2013-03-28 16:02:00,
2013-03-28 12:12:00,43.0,30.0,-100.00,North,360,11.0,16.0,60,-99.99,,,-99.99,,2013-03-28 16:12:00,
2013-03-28 12:22:00,43.0,30.0,-100.00,North,360,11.0,16.0,60,-99.99,,,-99.99,,2013-03-28 16:22:00,
2013-03-28 12:32:00,43.0,30.0,-100.00,North,360,11.0,16.0,60,-99.99,,,-99.99,,2013-03-28 16:32:00,
2013-03-28 12:41:00,43.0,30.0,-100.00,North,360,11.0,16.0,60,-99.99,,,-99.99,,2013-03-28 16:41:00,
2013-03-28 12:51:00,43.0,31.0,-100.00,North,360,9.0,16.0,62,-99.99,,,-99.99,,2013-03-28 16:51:00,
2013-03-28 13:02:00,43.0,31.0,-100.00,North,360,9.0,16.0,62,-99.99,,,-99.99,,2013-03-28 17:02:00,
2013-03-28 13:12:00,44.0,32.0,-100.00,North,360,11.0,13.0,62,-99.99,,,-99.99,,2013-03-28 17:12:00,
2013-03-28 13:21:00,44.0,32.0,-100.00,North,360,11.0,13.0,62,-99.99,,,-99.99,,2013-03-28 17:21:00,
2013-03-28 13:31:00,44.0,32.0,-100.00,North,360,11.0,13.0,62,-99.99,,,-99.99,,2013-03-28 17:31:00,
2013-03-28 13:41:00,43.0,33.0,-100.00,North,360,7.0,11.0,66,-99.99,,,-99.99,,2013-03-28 17:41:00,
2013-03-28 13:52:00,43.0,33.0,-100.00,North,360,7.0,11.0,66,-99.99,,,-99.99,,2013-03-28 17:52:00,
2013-03-28 14:01:00,43.0,33.0,-100.00,North,360,7.0,11.0,66,-99.99,,,-99.99,,2013-03-28 18:01:00,
2013-03-28 14:11:00,44.0,32.0,-100.00,North,360,11.0,16.0,62,-99.99,,,-99.99,,2013-03-28 18:11:00,
2013-03-28 14:21:00,44.0,32.0,-100.00,North,360,11.0,16.0,62,-99.99,,,-99.99,,2013-03-28 18:21:00,
2013-03-28 14:31:00,44.0,32.0,-100.00,North,360,11.0,16.0,62,-99.99,,,-99.99,,2013-03-28 18:31:00,
2013-03-28 14:41:00,44.0,32.0,-100.00,North,360,11.0,16.0,62,-99.99,,,-99.99,,2013-03-28 18:41:00,
2013-03-28 15:01:00,44.0,33.0,-100.00,North,360,11.0,13.0,64,-99.99,,,-99.99,,2013-03-28 19:01:00,
2013-03-28 15:11:00,44.0,33.0,-100.00,North,360,11.0,13.0,64,-99.99,,,-99.99,,2013-03-28 19:11:00,
2013-03-28 15:21:00,44.0,33.0,-100.00,NNW,340,9.0,13.0,62,-99.99,,,-99.99,,2013-03-28 19:21:00,
2013-03-28 15:31:00,44.0,33.0,-100.00,NNW,340,9.0,13.0,62,-99.99,,,-99.99,,2013-03-28 19:31:00,
2013-03-28 15:41:00,45.0,32.0,-100.00,NW,320,7.0,11.0,60,-99.99,,,-99.99,,2013-03-28 19:41:00,
2013-03-28 15:52:00,45.0,32.0,-100.00,NW,320,7.0,11.0,60,-99.99,,,-99.99,,2013-03-28 19:52:00,
2013-03-28 16:01:00,45.0,32.0,-100.00,NW,320,7.0,11.0,60,-99.99,,,-99.99,,2013-03-28 20:01:00,
2013-03-28 16:11:00,45.0,32.0,-100.00,NW,320,7.0,11.0,60,-99.99,,,-99.99,,2013-03-28 20:11:00,
2013-03-28 16:21:00,44.0,34.0,-100.00,NW,320,9.0,11.0,66,-99.99,,,-99.99,,2013-03-28 20:21:00,
2013-03-28 16:32:00,44.0,34.0,-100.00,NW,320,9.0,11.0,66,-99.99,,,-99.99,,2013-03-28 20:32:00,
2013-03-28 16:42:00,44.0,34.0,-100.00,NW,320,9.0,11.0,66,-99.99,,,-99.99,,2013-03-28 20:42:00,
2013-03-28 16:52:00,45.0,32.0,-100.00,NNW,330,9.0,13.0,59,-99.99,,,-99.99,,2013-03-28 20:52:00,
2013-03-28 17:01:00,45.0,32.0,-100.00,NNW,330,9.0,13.0,59,-99.99,,,-99.99,,2013-03-28 21:01:00,
2013-03-28 17:21:00,45.0,32.0,-100.00,NNW,340,11.0,13.0,59,-99.99,,,-99.99,,2013-03-28 21:21:00,
2013-03-28 17:32:00,45.0,32.0,-100.00,NNW,340,11.0,13.0,59,-99.99,,,-99.99,,2013-03-28 21:32:00,
2013-03-28 17:42:00,46.0,32.0,-100.00,NNW,330,11.0,13.0,59,-99.99,,,-99.99,,2013-03-28 21:42:00,
2013-03-28 17:52:00,46.0,32.0,-100.00,NNW,330,11.0,13.0,59,-99.99,,,-99.99,,2013-03-28 21:52:00,
2013-03-28 18:02:00,46.0,32.0,-100.00,NNW,330,11.0,13.0,59,-99.99,,,-99.99,,2013-03-28 22:02:00,
2013-03-28 18:12:00,46.0,32.0,-100.00,NNW,330,11.0,13.0,59,-99.99,,,-99.99,,2013-03-28 22:12:00,
2013-03-28 18:22:00,46.0,32.0,-100.00,North,350,11.0,16.0,57,-99.99,,,-99.99,,2013-03-28 22:22:00,
2013-03-28 18:32:00,46.0,32.0,-100.00,North,350,11.0,16.0,57,-99.99,,,-99.99,,2013-03-28 22:32:00,
2013-03-28 18:41:00,45.0,32.0,-100.00,NNW,340,11.0,13.0,59,-99.99,,,-99.99,,2013-03-28 22:41:00,
2013-03-28 18:52:00,45.0,32.0,-100.00,NNW,340,11.0,13.0,59,-99.99,,,-99.99,,2013-03-28 22:52:00,
2013-03-28 19:01:00,45.0,32.0,-100.00,NNW,340,11.0,13.0,59,-99.99,,,-99.99,,2013-03-28 23:01:00,
2013-03-28 19:11:00,45.0,33.0,-100.00,NNW,330,11.0,16.0,60,-99.99,,,-99.99,,2013-03-28 23:11:00,
2013-03-28 19:21:00,45.0,33.0,-100.00,NNW,330,11.0,16.0,60,-99.99,,,-99.99,,2013-03-28 23:21:00,
2013-03-28 19:31:00,45.0,33.0,-100.00,NNW,330,11.0,16.0,60,-99.99,,,-99.99,,2013-03-28 23:31:00,
2013-03-28 19:42:00,45.0,33.0,-100.00,NNW,330,11.0,16.0,60,-99.99,,,-99.99,,2013-03-28 23:42:00,
2013-03-28 19:52:00,46.0,32.0,-100.00,NW,320,13.0,18.0,58,-99.99,,,-99.99,,2013-03-28 23:52:00,
2013-03-28 20:01:00,46.0,32.0,-100.00,NW,320,13.0,18.0,58,-99.99,,,-99.99,,2013-03-29 00:01:00,
2013-03-28 20:11:00,45.0,33.0,-100.00,NW,310,11.0,13.0,63,-99.99,,,-99.99,,2013-03-29 00:11:00,
2013-03-28 20:21:00,45.0,33.0,-100.00,NW,310,11.0,13.0,63,-99.99,,,-99.99,,2013-03-29 00:21:00,
2013-03-28 20:31:00,45.0,33.0,-100.00,NW,310,11.0,13.0,63,-99.99,,,-99.99,,2013-03-29 00:31:00,
2013-03-28 20:42:00,45.0,33.0,-100.00,NW,310,11.0,13.0,63,-99.99,,,-99.99,,2013-03-29 00:42:00,
2013-03-28 20:51:00,45.0,32.0,-100.00,WNW,300,13.0,18.0,59,-99.99,,,-99.99,,2013-03-29 00:51:00,
2013-03-28 21:01:00,45.0,32.0,-100.00,WNW,300,13.0,18.0,59,-99.99,,,-99.99,,2013-03-29 01:01:00,
2013-03-28 21:21:00,45.0,33.0,-100.00,NW,320,11.0,13.0,63,-99.99,,,-99.99,,2013-03-29 01:21:00,
2013-03-28 21:31:00,45.0,33.0,-100.00,NW,320,11.0,13.0,63,-99.99,,,-99.99,,2013-03-29 01:31:00,